Weather Roundup
Issued by NWS Chicago, IL

Home | Current Version | Previous Version | Graphics & Text | Print | Product List | Glossary On
Versions: 1 2 3 4 5 6 7 8 9 10 11 12 13 14 15 16 17 18 19 20 21 22 23 24 25 26 27 28 29 30 31 32 33 34 35 36 37 38 39 40 41 42 43 44 45 46 47 48 49 50
000
NZUS59 KLOT 290203
HRRLOT

CHICAGO AREA WEATHER ROUNDUP
NATIONAL WEATHER SERVICE CHICAGO/ROMEOVILLE IL
900 PM CDT WED JUN 28 2017

NOTE: "FAIR" INDICATES FEW OR NO CLOUDS BELOW 12,000 FEET WITH NO
SIGNIFICANT WEATHER AND/OR OBSTRUCTIONS TO VISIBILITY.

* THESE STATIONS ARE NOT UNDER NWS QUALITY CONTROL. THEY ALSO MAY NOT
  REPORT WEATHER SUCH AS PRECIPITATION OR FOG.

ILZ005-006-012>014-019>023-290300-
NORTHEAST ILLINOIS

CITY           SKY/WX    TMP DP  RH WIND       PRES   REMARKS
OHARE          CLOUDY    79  60  52 S20G28    29.76S HX  80
MIDWAY         MOCLDY    79  62  56 S20G29    29.77S HX  80
AURORA         CLOUDY    77  63  61 S18G25    29.78R
LANSING*       CLOUDY    77  60  55 S14G25    29.82R
JOLIET*        CLOUDY    80  62  54 S16G22    29.80R HX  81
WAUKEGAN       TSTM      74  64  71 W14G26    29.83R
DUPAGE AIRPORT CLOUDY    76  63  64 S18G29    29.76R
WHEELING       CLOUDY    77  64  64 S18G25    29.77R
MORRIS*        CLOUDY    77  62  60 S15G22    29.78S
LEWIS AIRPORT* CLOUDY   N/A N/A N/A S20       29.79R
$$

WIZ051-052-058>065-066-070>072-290300-
SOUTHEAST WISCONSIN

CITY           SKY/WX    TMP DP  RH WIND       PRES   REMARKS
MILWAUKEE      TSTM      65  63  93 VRB6G22   29.78R FOG
KENOSHA*       TSTM      69  65  86 NW15G24   29.78R FOG
RACINE*        TSTM      65  61  87 NW13G30   29.82R FOG
WAUKESHA       RAIN      61  61 100 SE17G24   29.71F FOG
$$

INZ001>003-010>013-019-020-290300-
NORTHWEST INDIANA

CITY           SKY/WX    TMP DP  RH WIND       PRES   REMARKS
GARY*          MOCLDY    79  57  47 S12G25    29.80S HX  80
MICHIGAN CITY* NOT AVBL
RENSSELAER*    NOT AVBL
VALPARAISO     CLEAR     77  59  53 S16G26    29.84F
$$

LMZ740>746-290300-
SOUTHERN LAKE MICHIGAN

STATION/POSITION TIME  SKY/WX   TEMP WIND        PRES    VSBY
                                AIR  DIR/SP/G
                 (UTC)          (F)  (DEG/KT/KT) (MB)    (MI)
HARRISON CRIB    0140            78  200/ 29/ 33   N/A
BURNHAM HARBOR   0200            78                N/A
CALUMET HARBOR   0130            78  180/ 13/ 21 1007.8F
BURNS HARBOR     0140            77  180/ 17/ 25 1009.1F
MICHIGAN CITY    0140            77  170/ 16/ 19   N/A
$$

ABBREVIATIONS USED IN REMARKS
   TC - TEMPERATURE IN CELSIUS
  WCI - WIND CHILL INDEX
   HX - HEAT INDEX
  VSB - VISIBILITY
$$



USA.gov is the U.S. government's official web portal to all federal, state and local government web resources and services.